| time (UTC) | temp C | wind direction | speed KPH | gust KPH | rain 1hr cm | rain 24hr cm | rain mn cm | humidity % | barometer mb |
| 20260506015215 | 20 | 42 | 12.9 | 19.3 | 0.00 | 0.00 | 0.00 | 71 | 1006.0 |
| 20260506014648 | 20 | 32 | 8.0 | 17.7 | 0.00 | 0.00 | 0.00 | 71 | 1006.0 |
| 20260506013215 | 20 | 51 | 8.0 | 20.9 | 0.00 | 0.00 | 0.00 | 71 | 1005.8 |
| 20260506012214 | 20 | 51 | 12.9 | 20.9 | 0.00 | 0.00 | 0.00 | 70 | 1005.7 |
| 20260506011216 | 21 | 44 | 11.3 | 22.5 | 0.00 | 0.00 | 0.00 | 69 | 1005.9 |
| 20260506010659 | 21 | 8 | 9.7 | 14.5 | 0.00 | 0.00 | 0.00 | 69 | 1005.6 |
| 20260506005215 | 22 | 45 | 8.0 | 17.7 | 0.00 | 0.00 | 0.00 | 67 | 1005.5 |
| 20260506004216 | 22 | 37 | 9.7 | 19.3 | 0.00 | 0.00 | 0.00 | 68 | 1004.9 |
| 20260506003216 | 22 | 45 | 8.0 | 14.5 | 0.00 | 0.00 | 0.00 | 68 | 1004.7 |
| 20260506002215 | 22 | 31 | 9.7 | 17.7 | 0.00 | 0.00 | 0.00 | 66 | 1004.6 |
| 20260506001654 | 23 | 20 | 12.9 | 25.7 | 0.00 | 0.00 | 0.00 | 66 | 1004.4 |
| 20260506000702 | 23 | 35 | 16.1 | 27.4 | 0.00 | 0.00 | 0.00 | 66 | 1004.5 |
| 20260505235217 | 24 | 58 | 12.9 | 22.5 | 0.00 | 0.00 | 0.00 | 64 | 1004.4 |
| 20260505234217 | 25 | 25 | 16.1 | 27.4 | 0.00 | 0.00 | 0.00 | 63 | 1004.1 |
| 20260505233654 | 25 | 298 | 4.8 | 17.7 | 0.00 | 0.00 | 0.00 | 62 | 1004.0 |
| 20260505232217 | 26 | 47 | 9.7 | 25.7 | 0.00 | 0.00 | 0.00 | 61 | 1004.2 |
| 20260505231218 | 27 | 51 | 8.0 | 22.5 | 0.00 | 0.00 | 0.00 | 61 | 1003.8 |
| 20260505230217 | 27 | 68 | 8.0 | 20.9 | 0.00 | 0.00 | 0.00 | 59 | 1003.8 |
| 20260505225217 | 27 | 344 | 6.4 | 19.3 | 0.00 | 0.00 | 0.00 | 58 | 1003.6 |
| 20260505224217 | 28 | 28 | 6.4 | 17.7 | 0.00 | 0.00 | 0.00 | 57 | 1003.3 |
| 20260505223216 | 28 | 285 | 4.8 | 19.3 | 0.00 | 0.00 | 0.00 | 56 | 1003.3 |
| 20260505222217 | 29 | 38 | 6.4 | 19.3 | 0.00 | 0.00 | 0.00 | 51 | 1003.1 |
| 20260505221217 | 30 | 44 | 9.7 | 16.1 | 0.00 | 0.00 | 0.00 | 49 | 1003.0 |
| 20260505220216 | 30 | 290 | 6.4 | 17.7 | 0.00 | 0.00 | 0.00 | 48 | 1002.8 |
| 20260505215217 | 30 | 24 | 8.0 | 20.9 | 0.00 | 0.00 | 0.00 | 50 | 1002.9 |
| 20260505214216 | 31 | 54 | 11.3 | 22.5 | 0.00 | 0.00 | 0.00 | 45 | 1003.0 |
| 20260505213217 | 32 | 293 | 8.0 | 11.3 | 0.00 | 0.00 | 0.00 | 51 | 1002.8 |
| 20260505212218 | 32 | 309 | 6.4 | 14.5 | 0.00 | 0.00 | 0.00 | 49 | 1002.9 |
| 20260505211217 | 32 | 272 | 6.4 | 14.5 | 0.00 | 0.00 | 0.00 | 49 | 1003.1 |
| 20260505210218 | 32 | 296 | 8.0 | 20.9 | 0.00 | 0.00 | 0.00 | 49 | 1003.1 |
| 20260505205216 | 32 | 274 | 8.0 | 17.7 | 0.00 | 0.00 | 0.00 | 50 | 1003.3 |
| 20260505204217 | 32 | 282 | 8.0 | 19.3 | 0.00 | 0.00 | 0.00 | 53 | 1003.2 |
| 20260505203218 | 32 | 290 | 6.4 | 11.3 | 0.00 | 0.00 | 0.00 | 55 | 1003.4 |
| 20260505202216 | 32 | 293 | 9.7 | 16.1 | 0.00 | 0.00 | 0.00 | 53 | 1003.5 |
| 20260505201217 | 31 | 123 | 11.3 | 22.5 | 0.00 | 0.00 | 0.00 | 55 | 1003.6 |
| 20260505200216 | 31 | 245 | 6.4 | 16.1 | 0.00 | 0.00 | 0.00 | 56 | 1003.7 |
| 20260505195217 | 32 | 235 | 4.8 | 14.5 | 0.00 | 0.00 | 0.00 | 55 | 1003.6 |
| 20260505194216 | 31 | 271 | 6.4 | 19.3 | 0.00 | 0.00 | 0.00 | 56 | 1003.7 |
| 20260505193656 | 31 | 279 | 6.4 | 16.1 | 0.00 | 0.00 | 0.00 | 59 | 1003.8 |
| 20260505192217 | 31 | 286 | 4.8 | 11.3 | 0.00 | 0.00 | 0.00 | 59 | 1003.8 |
| 20260505191217 | 31 | 274 | 3.2 | 11.3 | 0.00 | 0.00 | 0.00 | 59 | 1003.7 |
| 20260505190216 | 31 | 195 | 3.2 | 14.5 | 0.00 | 0.00 | 0.00 | 58 | 1003.8 |
| 20260505185217 | 30 | 228 | 4.8 | 20.9 | 0.00 | 0.00 | 0.00 | 61 | 1003.7 |
| 20260505184216 | 29 | 173 | 4.8 | 16.1 | 0.00 | 0.00 | 0.00 | 63 | 1003.8 |
| 20260505183217 | 29 | 228 | 4.8 | 19.3 | 0.00 | 0.00 | 0.00 | 62 | 1004.0 |
| 20260505182217 | 29 | 271 | 4.8 | 14.5 | 0.00 | 0.00 | 0.00 | 63 | 1004.0 |
| 20260505181217 | 29 | 248 | 4.8 | 16.1 | 0.00 | 0.00 | 0.00 | 62 | 1003.8 |
| 20260505180217 | 29 | 189 | 4.8 | 16.1 | 0.00 | 0.00 | 0.00 | 63 | 1004.0 |
| 20260505180133 | 28 | 300 | 6.4 | 20.9 | 0.00 | 0.00 | 0.00 | 65 | 1004.0 |
| 20260505174217 | 28 | 219 | 4.8 | 16.1 | 0.00 | 0.00 | 0.00 | 65 | 1003.9 |
| 20260505174140 | 28 | 240 | 3.2 | 14.5 | 0.00 | 0.00 | 0.00 | 65 | 1003.9 |
| 20260505172216 | 28 | 276 | 3.2 | 14.5 | 0.00 | 0.00 | 0.00 | 68 | 1003.9 |
| 20260505171216 | 28 | 220 | 3.2 | 14.5 | 0.00 | 0.00 | 0.00 | 67 | 1003.9 |
| 20260505170217 | 27 | 202 | 3.2 | 14.5 | 0.00 | 0.00 | 0.00 | 68 | 1004.2 |
| 20260505165216 | 27 | 243 | 4.8 | 24.1 | 0.00 | 0.00 | 0.00 | 69 | 1004.0 |
| 20260505164216 | 27 | 106 | 4.8 | 16.1 | 0.00 | 0.00 | 0.00 | 68 | 1004.1 |
| 20260505163216 | 27 | 214 | 3.2 | 19.3 | 0.00 | 0.00 | 0.00 | 69 | 1003.9 |
| 20260505162216 | 26 | 235 | 4.8 | 14.5 | 0.00 | 0.00 | 0.00 | 70 | 1003.9 |
| 20260505161216 | 26 | 193 | 4.8 | 17.7 | 0.00 | 0.00 | 0.00 | 71 | 1003.8 |
| 20260505160217 | 26 | 281 | 3.2 | 11.3 | 0.00 | 0.00 | 0.00 | 72 | 1003.8 |
| 20260505152216 | 25 | 193 | 6.4 | 16.1 | 0.00 | 0.00 | 0.00 | 74 | 1003.7 |
| 20260505151215 | 25 | 224 | 4.8 | 17.7 | 0.00 | 0.00 | 0.00 | 74 | 1003.6 |
| 20260505150216 | 24 | 245 | 4.8 | 17.7 | 0.00 | 0.00 | 0.00 | 77 | 1003.8 |
| 20260505140214 | 22 | 266 | 3.2 | 16.1 | 0.00 | 0.00 | 0.00 | 81 | 1003.5 |
| 20260505130215 | 21 | 155 | 4.8 | 17.7 | 0.00 | 0.00 | 0.00 | 83 | 1003.4 |
| 20260505124215 | 21 | 275 | 3.2 | 14.5 | 0.00 | 0.00 | 0.00 | 84 | 1003.0 |
| 20260505123214 | 21 | 193 | 3.2 | 14.5 | 0.00 | 0.00 | 0.00 | 84 | 1003.1 |
| 20260505122215 | 21 | 214 | 3.2 | 11.3 | 0.00 | 0.00 | 0.00 | 84 | 1002.9 |
| 20260505121215 | 21 | 266 | 4.8 | 14.5 | 0.00 | 0.00 | 0.00 | 84 | 1002.7 |
| 20260505120215 | 21 | 144 | 1.6 | 16.1 | 0.00 | 0.00 | 0.00 | 84 | 1002.7 |
| 20260505115214 | 21 | 190 | 3.2 | 14.5 | 0.00 | 0.00 | 0.00 | 84 | 1002.8 |
| 20260505114216 | 21 | 259 | 4.8 | 16.1 | 0.00 | 0.00 | 0.00 | 84 | 1002.6 |
| 20260505113214 | 21 | 244 | 1.6 | 14.5 | 0.00 | 0.00 | 0.00 | 84 | 1002.5 |
| 20260505112214 | 21 | 233 | 3.2 | 9.7 | 0.00 | 0.00 | 0.00 | 84 | 1002.4 |
| 20260505111215 | 21 | 258 | 4.8 | 14.5 | 0.00 | 0.00 | 0.00 | 84 | 1002.5 |
| 20260505110215 | 21 | 204 | 3.2 | 14.5 | 0.00 | 0.00 | 0.00 | 84 | 1002.6 |
| 20260505102216 | 21 | 276 | 4.8 | 16.1 | 0.00 | 0.00 | 0.00 | 83 | 1002.6 |
| 20260505101216 | 21 | 202 | 1.6 | 11.3 | 0.00 | 0.00 | 0.00 | 83 | 1002.6 |
| 20260505100216 | 21 | 226 | 6.4 | 17.7 | 0.00 | 0.00 | 0.00 | 82 | 1002.8 |
| 20260505095701 | 21 | 251 | 4.8 | 11.3 | 0.00 | 0.00 | 0.00 | 82 | 1002.8 |
| 20260505094215 | 21 | 213 | 3.2 | 17.7 | 0.00 | 0.00 | 0.00 | 82 | 1002.7 |
| 20260505093216 | 21 | 262 | 4.8 | 17.7 | 0.00 | 0.00 | 0.00 | 82 | 1002.8 |
| 20260505092216 | 21 | 279 | 3.2 | 14.5 | 0.00 | 0.00 | 0.00 | 81 | 1002.9 |
| 20260505091216 | 21 | 195 | 3.2 | 8.0 | 0.00 | 0.00 | 0.00 | 81 | 1003.0 |
| 20260505091146 | 21 | 219 | 3.2 | 22.5 | 0.00 | 0.00 | 0.00 | 81 | 1003.0 |
| 20260505085216 | 22 | 209 | 4.8 | 16.1 | 0.00 | 0.00 | 0.00 | 81 | 1003.1 |
| 20260505084216 | 22 | 169 | 4.8 | 19.3 | 0.00 | 0.00 | 0.00 | 80 | 1003.0 |
| 20260505083215 | 22 | 213 | 4.8 | 14.5 | 0.00 | 0.00 | 0.00 | 80 | 1003.1 |
| 20260505082217 | 22 | 182 | 4.8 | 16.1 | 0.00 | 0.00 | 0.00 | 80 | 1003.0 |
| 20260505081215 | 22 | 258 | 3.2 | 16.1 | 0.00 | 0.00 | 0.00 | 79 | 1003.1 |
| 20260505080215 | 22 | 186 | 3.2 | 11.3 | 0.00 | 0.00 | 0.00 | 79 | 1003.0 |
| 20260505075216 | 22 | 241 | 4.8 | 9.7 | 0.00 | 0.00 | 0.00 | 78 | 1003.1 |
| 20260505074215 | 22 | 204 | 4.8 | 11.3 | 0.00 | 0.00 | 0.00 | 78 | 1003.3 |
| 20260505073215 | 22 | 216 | 3.2 | 17.7 | 0.00 | 0.00 | 0.00 | 77 | 1003.6 |
| 20260505072216 | 22 | 272 | 3.2 | 11.3 | 0.00 | 0.00 | 0.00 | 77 | 1003.6 |
| 20260505071648 | 22 | 193 | 3.2 | 9.7 | 0.00 | 0.00 | 0.00 | 76 | 1003.8 |
| 20260505070215 | 22 | 203 | 1.6 | 16.1 | 0.00 | 0.00 | 0.00 | 76 | 1004.0 |
| 20260505065216 | 22 | 313 | 1.6 | 14.5 | 0.00 | 0.00 | 0.00 | 75 | 1004.4 |
| 20260505064215 | 23 | 204 | 4.8 | 9.7 | 0.00 | 0.00 | 0.00 | 74 | 1004.5 |
| 20260505063216 | 23 | 155 | 3.2 | 8.0 | 0.00 | 0.00 | 0.00 | 74 | 1004.5 |
| 20260505062215 | 23 | 230 | 3.2 | 9.7 | 0.00 | 0.00 | 0.00 | 73 | 1004.5 |
| 20260505061215 | 23 | 264 | 1.6 | 14.5 | 0.00 | 0.00 | 0.00 | 72 | 1004.6 |
| 20260505060652 | 23 | 230 | 1.6 | 14.5 | 0.00 | 0.00 | 0.00 | 72 | 1004.8 |
| 20260505055215 | 23 | 169 | 3.2 | 9.7 | 0.00 | 0.00 | 0.00 | 72 | 1004.7 |
| 20260505054215 | 23 | 283 | 3.2 | 9.7 | 0.00 | 0.00 | 0.00 | 72 | 1004.5 |
| 20260505053215 | 23 | 176 | 3.2 | 8.0 | 0.00 | 0.00 | 0.00 | 72 | 1004.5 |
| 20260505052215 | 23 | 75 | 3.2 | 11.3 | 0.00 | 0.00 | 0.00 | 72 | 1004.5 |
| 20260505051216 | 23 | 230 | 0.0 | 8.0 | 0.00 | 0.00 | 0.00 | 72 | 1004.6 |
| 20260505050216 | 23 | 230 | 3.2 | 9.7 | 0.00 | 0.00 | 0.00 | 72 | 1004.8 |
| 20260505041215 | 23 | 241 | 1.6 | 9.7 | 0.00 | 0.00 | 0.00 | 71 | 1004.8 |
| 20260505040215 | 23 | 296 | 3.2 | 11.3 | 0.00 | 0.00 | 0.00 | 71 | 1005.0 |
| 20260505035215 | 23 | 210 | 1.6 | 17.7 | 0.00 | 0.00 | 0.00 | 70 | 1005.0 |
| 20260505034215 | 23 | 128 | 3.2 | 8.0 | 0.00 | 0.00 | 0.00 | 70 | 1004.9 |
| 20260505033214 | 23 | 212 | 3.2 | 8.0 | 0.00 | 0.00 | 0.00 | 71 | 1004.7 |
| 20260505032214 | 23 | 358 | 1.6 | 8.0 | 0.00 | 0.00 | 0.00 | 70 | 1004.6 |
| 20260505031214 | 23 | 145 | 3.2 | 9.7 | 0.00 | 0.00 | 0.00 | 70 | 1005.0 |
| 20260505030215 | 23 | 151 | 3.2 | 9.7 | 0.00 | 0.00 | 0.00 | 70 | 1004.9 |
| 20260505025213 | 23 | 149 | 1.6 | 11.3 | 0.00 | 0.00 | 0.00 | 70 | 1005.0 |
| 20260505024213 | 23 | 241 | 1.6 | 9.7 | 0.00 | 0.00 | 0.00 | 70 | 1005.0 |
| 20260505023213 | 23 | 162 | 1.6 | 14.5 | 0.00 | 0.00 | 0.00 | 69 | 1004.9 |
| 20260505022214 | 23 | 109 | 1.6 | 6.4 | 0.00 | 0.00 | 0.00 | 69 | 1005.1 |
| 20260505021646 | 23 | 298 | 0.0 | 4.8 | 0.00 | 0.00 | 0.00 | 69 | 1004.8 |
| 20260505020211 | 24 | 223 | 1.6 | 6.4 | 0.00 | 0.00 | 0.00 | 68 | 1004.8 |